Tracking 18984 objects as of 24-Feb-2018
HD Live streaming from Space Station
objects crossing your sky now

EUTE 33A (EB 3)

Track EUTE 33A (EB 3) now!
EUTE 33A (EB 3) is classified as:


NORAD ID: 27948
Int'l Code: 2003-043A
Perigee: 36,164.2 km
Apogee: 36,208.7 km
Inclination: 2.9 °
Period: 1,456.2 minutes
Semi major axis: 42557 km
RCS: 1.8733 m2 (large)
Launch date: September 27, 2003
Source: European Telecommunications Satellite Organization (EUTE)
Launch site: FRENCH GUIANA (FRGUI)

20 Ku-band transponders; video and data transmission to Europe and Turkey.
aabbcc
Your satellite tracking list
Your tracking list is empty




NASA's NSSDC Master Catalog

Two Line Element Set (TLE):
1 27948U 03043A   18054.45832958 -.00000202 +00000-0 +00000-0 0  9997
2 27948 002.8597 077.1401 0005228 184.5237 233.0991 00.98886935015043
Source of the keplerian elements: AFSPC